Wind_Speed
3 3 3 3 3 2 2 3 2 2 1 1 1 2 3 3 3 3 3 3 4 3 3 3 3 3 3 3 3 4 4 4 5 5 6 6 6 6 6 7 7 7 8
3 3 2 2 1 1 1 2 2 2 2 2 2 2 3 3 4 4 4 4 3 3 3 3 4 3 3 4 4 5 5 6 6 7 7 6 7 7 8 8 8 8 9
2 2 2 1 1 1 1 1 1 1 2 2 3 2 3 3 5 5 5 5 4 4 4 4 4 4 4 5 6 6 7 7 7 7 7 7 8 8 9 9 10 10 10
1 1 1 1 1 1 1 1 1 2 2 3 3 3 4 4 5 5 5 5 5 5 5 5 5 5 6 6 7 8 8 8 8 8 8 8 9 9 10 11 11 11 11
1 1 0 1 1 1 1 1 1 3 3 3 3 4 4 5 5 5 5 5 5 5 5 5 6 6 6 7 8 8 9 9 9 9 9 10 10 10 11 11 11 12 12
2 1 0 1 2 2 2 3 3 3 4 4 4 4 5 5 6 6 6 5 5 6 6 6 7 7 7 8 8 9 9 9 9 10 10 11 10 10 11 12 12 12 13
2 2 2 1 2 2 2 3 3 4 5 4 5 5 6 6 6 6 6 6 6 6 6 7 8 8 9 9 10 9 9 10 10 10 11 10 11 11 12 11 12 13 14
3 2 2 2 2 2 3 3 4 4 5 5 5 6 6 7 7 7 7 7 6 6 7 8 9 9 9 10 10 9 9 10 10 10 11 11 11 12 12 13 13 14 15
3 3 3 2 3 4 4 4 5 5 5 5 5 6 6 6 7 6 6 7 6 7 8 9 9 9 9 9 9 10 10 10 11 11 11 11 12 12 13 14 14 15 16
2 2 3 4 4 4 4 5 6 5 5 4 5 6 6 5 6 6 6 7 7 8 9 9 9 9 9 9 10 10 10 10 11 11 11 12 12 13 13 14 14 15 15
2 2 3 4 5 4 5 6 6 5 4 4 5 5 6 6 6 7 6 6 7 7 8 8 9 9 9 9 10 10 10 11 11 11 12 12 12 13 14 14 15 15 15
3 4 4 4 5 6 6 5 5 5 5 5 6 6 6 6 7 7 7 7 7 8 9 9 9 9 9 9 10 10 10 11 11 12 12 12 13 13 14 15 15 15 16
4 4 4 5 5 6 6 5 5 5 6 6 7 7 7 7 7 7 7 8 8 9 9 9 9 9 9 10 11 11 12 12 12 13 13 13 14 15 15 16 16 16 17
4 4 4 5 5 5 6 6 6 6 6 6 7 8 7 7 8 8 8 9 9 9 9 10 10 10 10 11 11 12 13 13 14 14 14 15 16 16 17 17 17 17 18
5 5 5 5 6 6 6 6 6 7 6 6 7 8 8 8 8 8 9 9 10 10 10 10 11 11 11 12 12 13 13 14 15 15 16 16 17 17 18 17 18 18 19
5 5 5 6 7 6 6 6 6 7 7 7 7 8 8 8 9 9 10 10 10 10 11 12 12 12 13 13 14 14 15 15 16 16 17 17 17 18 18 18 18 19 20
5 6 6 7 7 7 7 7 7 7 8 8 8 8 8 8 9 10 11 11 11 12 13 13 14 14 15 15 15 15 16 16 16 17 17 18 18 19 19 20 20 21 21
6 6 6 7 7 7 7 8 9 9 9 9 9 9 9 9 10 11 11 12 12 13 14 14 15 16 16 17 17 17 17 18 18 18 19 19 20 20 20 20 21 21 22
7 7 7 7 8 8 8 9 9 9 9 10 9 9 9 10 11 12 12 13 14 15 15 16 16 17 18 19 19 19 19 20 20 20 21 21 21 21 21 21 21 22 22
8 8 8 8 8 9 9 10 10 10 10 10 10 10 10 11 12 13 14 15 15 16 17 18 18 19 19 20 20 20 21 21 22 22 22 22 22 22 21 21 22 22 23
9 9 9 10 10 11 11 11 11 11 11 11 11 12 12 12 14 15 16 16 16 17 18 19 20 21 21 21 21 22 22 23 23 23 23 23 22 23 23 23 23 23 23
11 11 11 11 11 11 11 12 12 12 13 13 13 13 14 15 16 17 18 17 18 18 20 21 22 22 23 23 23 23 23 23 23 24 24 24 24 25 25 25 25 25 25
12 12 12 12 12 12 13 13 14 13 14 14 14 15 16 17 18 18 19 19 19 20 21 22 23 24 25 24 24 24 24 24 25 25 26 26 26 25 25 25 26 27 27
14 14 14 14 14 14 15 15 15 15 15 16 17 17 18 19 19 21 21 21 22 23 23 24 24 25 25 26 26 26 26 26 27 28 28 28 27 27 26 26 27 28 28
15 15 15 15 15 16 16 17 17 17 18 18 19 19 20 21 22 22 23 24 24 25 26 26 26 26 26 27 27 27 28 29 29 30 31 30 29 28 28 28 28 29 29
16 16 16 16 17 17 18 19 19 20 20 21 21 22 23 23 24 24 25 25 25 26 27 27 28 27 27 28 29 29 30 30 31 31 31 32 31 30 29 29 29 29 29
Wind_Direction
156 164 165 170 169 171 188 211 219 230 233 262 272 299 320 327 319 318 320 311 298 298 296 304 308 305 288 282 294 313 307 292 285 280 283 283 283 281 284 282 281 276 275
165 153 151 162 190 201 207 229 232 251 269 301 292 309 318 322 318 316 315 315 304 300 298 299 306 305 290 281 287 301 301 291 286 286 283 281 282 285 283 280 280 279 276
161 147 125 148 203 232 243 246 237 246 279 301 312 315 312 318 323 323 315 316 310 300 296 292 294 298 293 293 298 300 299 292 290 287 289 287 290 286 284 281 278 279 279
139 128 126 171 209 260 274 306 302 278 291 297 306 316 315 314 317 320 321 321 318 315 304 298 297 296 292 290 293 297 298 294 292 287 287 290 291 289 284 283 281 278 278
111 101 145 235 251 263 261 281 282 289 293 299 308 321 315 309 313 318 325 320 315 312 306 294 297 294 295 295 292 296 298 293 294 290 287 290 291 292 291 287 283 279 277
107 90 34 276 273 273 277 284 287 296 298 298 304 310 313 313 313 314 313 314 314 312 307 296 298 297 294 294 290 292 298 297 292 294 292 292 294 297 300 291 285 282 277
71 55 28 354 320 300 301 311 303 300 306 307 307 306 306 311 308 308 309 312 314 311 309 302 300 298 300 299 294 293 295 297 297 295 298 300 299 298 299 298 293 288 284
45 35 7 347 334 322 319 322 318 309 310 313 314 312 316 313 313 311 308 308 314 314 312 312 308 304 303 305 304 298 298 298 302 303 304 301 301 302 300 297 296 292 290
25 18 6 333 318 318 325 332 328 317 316 322 321 324 322 317 307 304 308 311 313 314 316 319 317 313 312 311 307 302 301 303 303 304 304 302 302 303 301 300 297 294 294
350 4 351 328 319 322 328 330 327 324 329 327 323 324 321 322 326 319 311 309 314 316 320 321 318 315 315 315 316 313 314 313 309 306 304 302 304 306 305 305 304 300 298
332 331 330 323 328 335 334 333 335 330 332 339 337 334 330 327 329 332 325 322 321 323 325 324 323 319 317 317 317 314 315 314 314 313 311 308 308 308 307 306 304 302 300
334 325 321 328 337 339 334 334 343 349 350 347 341 335 330 330 329 325 328 328 323 322 323 322 323 324 321 320 319 318 317 317 315 315 314 313 312 311 311 310 307 303 300
338 344 350 352 346 340 338 337 341 338 335 335 335 335 328 327 330 332 331 330 327 325 326 324 322 321 320 319 319 316 315 315 314 313 312 310 309 308 308 307 306 303 302
358 358 356 349 343 339 338 338 340 336 328 323 327 332 329 332 333 336 335 335 336 333 332 328 323 321 320 321 320 316 315 314 311 311 311 310 309 308 308 306 305 304 302
346 346 342 333 328 325 322 322 328 334 330 323 324 328 330 334 335 334 332 328 330 330 329 327 324 322 321 319 318 316 314 313 311 311 311 311 311 310 309 308 307 305 303
330 328 329 332 328 318 312 315 324 327 328 324 322 325 330 337 340 331 331 329 328 328 328 329 325 323 318 315 314 313 314 313 313 313 311 310 311 311 309 307 307 308 307
316 315 321 327 326 323 316 311 313 317 323 321 320 322 325 327 327 326 326 325 324 324 325 326 325 323 321 319 317 315 313 312 311 311 310 310 309 309 309 307 307 308 307
313 311 315 324 325 327 327 323 319 315 318 318 316 317 317 318 320 322 322 321 321 320 321 322 324 323 321 318 317 316 313 312 312 311 310 310 308 307 307 306 307 307 306
311 312 313 317 320 324 326 327 324 322 319 317 318 316 314 316 318 319 322 322 322 322 320 320 319 319 319 316 315 315 312 313 313 311 310 309 309 308 306 305 306 306 305
305 307 305 308 313 316 316 317 318 318 320 321 319 316 312 314 315 317 318 320 321 321 319 319 317 317 316 315 315 315 314 312 312 311 311 311 309 309 309 308 306 306 306
299 299 299 302 307 309 310 311 310 311 314 315 314 313 312 313 314 315 318 318 317 318 318 318 318 317 317 314 314 314 314 313 311 311 310 309 308 308 308 308 307 306 306
292 295 297 297 302 304 304 306 307 307 306 308 308 307 308 310 312 313 315 315 314 315 316 317 317 316 317 316 314 314 313 312 312 311 310 309 308 308 306 305 305 305 305
290 293 296 295 296 297 298 302 304 305 304 304 304 304 304 306 308 310 311 311 310 312 313 314 315 315 315 315 313 312 311 309 309 308 308 307 305 306 305 304 303 303 303
291 291 291 292 291 293 295 299 301 302 302 302 301 301 302 305 307 307 308 309 309 310 310 311 312 313 313 313 312 311 309 308 307 306 306 306 305 304 303 303 302 301 302
290 290 290 292 294 294 294 296 296 298 299 299 300 300 301 302 304 305 306 307 308 309 310 310 310 310 310 310 310 309 309 308 308 307 307 306 304 304 303 303 302 301 300
288 288 291 292 293 293 293 294 294 294 295 295 297 298 299 300 301 303 305 305 306 307 308 308 308 308 308 307 307 307 307 308 308 307 306 305 303 302 302 302 302 301 300
Height
5883 5884 5885 5886 5887 5887 5888 5888 5889 5889 5890 5890 5890 5890 5890 5890 5890 5890 5890 5889 5889 5889 5889 5889 5889 5889 5889 5889 5889 5889 5889 5889 5889 5889 5889 5889 5889 5889 5889 5889 5889 5889 5890
5883 5885 5885 5886 5887 5887 5888 5888 5889 5889 5890 5890 5890 5890 5890 5890 5890 5889 5889 5889 5889 5889 5888 5888 5888 5888 5888 5888 5888 5888 5888 5888 5888 5888 5888 5888 5888 5888 5888 5888 5888 5888 5888
5884 5885 5886 5886 5887 5888 5888 5889 5889 5889 5890 5890 5890 5890 5890 5890 5889 5889 5889 5888 5888 5888 5887 5887 5887 5887 5887 5887 5887 5887 5887 5887 5887 5887 5886 5886 5886 5886 5886 5886 5886 5886 5885
5885 5886 5886 5887 5887 5888 5888 5889 5889 5889 5889 5889 5889 5889 5889 5889 5889 5888 5888 5888 5887 5887 5886 5887 5886 5886 5886 5886 5886 5886 5886 5885 5885 5885 5885 5884 5884 5884 5884 5883 5883 5883 5883
5886 5886 5886 5887 5887 5888 5888 5889 5889 5889 5889 5889 5889 5889 5889 5888 5888 5887 5887 5887 5886 5886 5885 5885 5885 5885 5885 5885 5884 5884 5884 5883 5883 5883 5882 5882 5882 5882 5881 5881 5880 5880 5880
5886 5886 5887 5887 5888 5888 5888 5889 5889 5888 5888 5888 5888 5888 5888 5887 5887 5886 5886 5886 5885 5884 5883 5884 5884 5884 5883 5883 5882 5882 5881 5881 5881 5881 5880 5880 5879 5879 5878 5877 5877 5877 5876
5887 5887 5887 5888 5888 5888 5888 5888 5888 5888 5888 5887 5887 5887 5887 5886 5886 5886 5885 5885 5884 5883 5883 5883 5883 5882 5881 5880 5880 5879 5879 5879 5879 5878 5878 5877 5877 5876 5875 5875 5874 5874 5873
5887 5887 5888 5888 5888 5888 5888 5888 5888 5888 5887 5887 5887 5886 5886 5886 5885 5884 5884 5883 5883 5882 5882 5881 5881 5880 5879 5879 5878 5877 5877 5877 5876 5876 5875 5875 5874 5873 5872 5872 5871 5870 5869
5888 5888 5887 5888 5888 5888 5888 5888 5887 5887 5887 5886 5886 5886 5885 5885 5884 5883 5882 5882 5882 5881 5880 5880 5879 5878 5877 5877 5876 5875 5875 5874 5874 5873 5873 5872 5871 5871 5869 5868 5867 5867 5866
5888 5888 5888 5888 5888 5888 5888 5888 5887 5886 5885 5885 5885 5884 5884 5884 5883 5882 5881 5881 5880 5879 5879 5878 5877 5876 5876 5875 5874 5873 5873 5872 5871 5871 5870 5869 5869 5867 5866 5865 5864 5863 5862
5888 5888 5888 5888 5888 5888 5887 5887 5886 5886 5885 5885 5884 5884 5883 5883 5882 5881 5880 5880 5879 5878 5877 5876 5876 5875 5874 5873 5872 5872 5871 5870 5869 5868 5867 5866 5865 5864 5863 5862 5860 5859 5858
5888 5888 5888 5888 5887 5887 5887 5886 5886 5885 5884 5884 5884 5883 5883 5882 5881 5881 5880 5879 5877 5877 5876 5875 5874 5873 5872 5871 5871 5870 5869 5867 5867 5866 5865 5864 5863 5861 5860 5858 5857 5855 5854
5888 5888 5887 5887 5887 5886 5886 5886 5885 5885 5884 5884 5883 5883 5882 5881 5880 5880 5879 5878 5877 5875 5874 5873 5872 5871 5870 5869 5868 5867 5866 5865 5864 5863 5862 5861 5859 5858 5857 5855 5853 5852 5850
5888 5887 5887 5887 5886 5886 5885 5885 5885 5884 5884 5883 5883 5882 5881 5880 5879 5878 5878 5877 5876 5874 5873 5872 5870 5869 5868 5867 5866 5865 5864 5862 5861 5860 5859 5858 5856 5854 5853 5851 5849 5848 5846
5887 5887 5887 5886 5886 5885 5885 5884 5884 5883 5882 5882 5881 5881 5880 5879 5878 5877 5876 5875 5874 5873 5872 5870 5868 5867 5866 5865 5864 5862 5861 5860 5858 5857 5855 5854 5852 5850 5848 5847 5845 5843 5841
5887 5887 5886 5885 5885 5884 5883 5883 5882 5882 5881 5881 5880 5879 5878 5878 5877 5876 5875 5873 5872 5871 5870 5868 5867 5865 5864 5862 5861 5860 5858 5856 5855 5853 5852 5850 5848 5846 5844 5842 5841 5839 5837
5886 5886 5885 5884 5884 5883 5882 5881 5881 5880 5879 5879 5878 5877 5876 5876 5875 5874 5873 5872 5870 5869 5868 5867 5865 5863 5861 5860 5858 5856 5855 5853 5851 5850 5848 5846 5844 5842 5840 5838 5836 5834 5832
5885 5885 5884 5883 5883 5882 5880 5880 5879 5878 5878 5877 5876 5875 5875 5874 5873 5872 5871 5870 5868 5867 5866 5864 5863 5861 5859 5857 5855 5853 5851 5849 5848 5845 5843 5841 5839 5837 5835 5832 5830 5828 5826
5884 5883 5883 5882 5881 5880 5879 5879 5878 5877 5876 5875 5874 5873 5873 5872 5871 5870 5869 5868 5866 5865 5863 5861 5860 5858 5856 5854 5851 5849 5847 5845 5843 5841 5839 5837 5834 5832 5830 5827 5825 5823 5820
5882 5881 5881 5880 5880 5879 5878 5877 5876 5875 5874 5873 5872 5871 5871 5870 5869 5868 5866 5865 5863 5862 5860 5858 5856 5854 5852 5849 5847 5845 5842 5840 5838 5836 5834 5832 5829 5827 5824 5822 5820 5817 5814
5880 5879 5879 5878 5878 5877 5876 5875 5875 5873 5872 5871 5870 5869 5868 5867 5866 5865 5863 5862 5860 5858 5856 5854 5852 5850 5847 5845 5843 5840 5838 5835 5833 5831 5828 5826 5824 5821 5819 5816 5813 5811 5808
5878 5877 5876 5876 5875 5875 5874 5873 5872 5871 5870 5869 5868 5867 5865 5864 5863 5862 5860 5858 5856 5854 5852 5850 5848 5845 5842 5840 5837 5835 5832 5830 5828 5826 5823 5821 5818 5815 5812 5810 5807 5804 5801
5875 5875 5874 5873 5873 5872 5871 5870 5869 5868 5867 5866 5865 5863 5862 5861 5859 5858 5856 5854 5852 5849 5847 5845 5843 5840 5837 5835 5832 5829 5827 5824 5822 5819 5817 5814 5811 5808 5806 5802 5800 5797 5794
5872 5872 5871 5870 5869 5869 5868 5867 5866 5864 5863 5862 5861 5859 5858 5857 5855 5853 5851 5849 5847 5845 5843 5840 5838 5835 5832 5829 5826 5824 5821 5818 5815 5812 5809 5807 5804 5801 5798 5795 5792 5789 5786
5869 5868 5867 5866 5866 5865 5864 5863 5861 5860 5859 5858 5857 5855 5854 5852 5851 5848 5847 5845 5842 5840 5837 5834 5832 5829 5826 5823 5820 5818 5814 5811 5808 5805 5802 5799 5796 5793 5791 5788 5785 5781 5778
5865 5864 5863 5862 5861 5860 5859 5858 5857 5856 5855 5854 5852 5850 5849 5847 5845 5843 5841 5839 5836 5834 5831 5828 5826 5823 5820 5816 5813 5810 5807 5804 5801 5798 5795 5791 5788 5785 5783 5780 5776 5773 5770